CAPE
1440 1488 1581 1677 1690 1694 1699 1685 1664 1617 1580 1527 1516 1552 1615 1593 1515 1452 1431 1503 1595 1708 1802 1842 1850 1793 1668 1570 1490 1421 1329 1155 941 896 877 726 0 0 0 0 0 0 0 0 0 0 0 0 0 0 0 0 0 0 0 0 0 0 0 0 0 0 0 0 0 0 0 0 0 0 0 0 66 0 0 0 0 0 149 10 0 0 0 0 0
1594 1580 1538 1570 1648 1692 1698 1717 1703 1680 1659 1640 1625 1590 1614 1641 1637 1562 1488 1506 1558 1619 1649 1686 1689 1664 1604 1521 1466 1426 1358 1256 998 880 830 731 432 0 0 0 0 0 0 0 0 0 0 0 0 0 0 0 0 0 0 0 0 0 0 0 0 0 0 0 0 0 0 0 0 0 0 0 147 0 0 22 1 3 0 0 0 0 0 0 0
1660 1715 1681 1610 1598 1631 1665 1695 1737 1746 1747 1756 1756 1717 1692 1704 1692 1665 1616 1564 1548 1591 1611 1635 1649 1628 1578 1515 1450 1389 1361 1298 1144 954 790 647 548 228 0 0 0 0 0 0 0 0 0 0 0 0 0 0 0 0 0 0 0 0 0 0 0 0 0 0 0 0 0 57 0 0 0 0 42 34 0 0 1 0 0 0 0 0 1 0 0
1647 1778 1813 1773 1690 1637 1630 1653 1723 1796 1817 1838 1862 1844 1815 1798 1797 1779 1751 1684 1613 1599 1611 1623 1636 1643 1598 1507 1418 1358 1340 1304 1234 1100 863 639 574 553 178 0 0 0 0 0 0 0 0 0 0 0 0 0 0 0 0 0 0 0 0 0 0 5 0 0 0 0 0 2 164 166 12 0 0 0 0 0 0 0 0 0 0 0 0 0 0
1642 1757 1856 1889 1859 1792 1721 1680 1692 1768 1848 1888 1917 1930 1926 1891 1868 1886 1868 1821 1763 1696 1690 1706 1724 1694 1593 1474 1397 1348 1336 1299 1245 1185 1029 760 614 614 616 300 0 0 0 0 39 0 127 145 0 0 0 0 0 0 0 0 0 0 0 102 129 145 116 82 147 172 206 217 247 224 188 99 110 196 135 6 2 0 0 0 0 0 0 0 0
1729 1790 1873 1940 1968 1953 1904 1832 1785 1792 1841 1902 1953 1986 2006 1986 1954 1959 1950 1931 1904 1872 1864 1852 1847 1767 1602 1443 1366 1343 1336 1326 1269 1207 1078 848 700 758 805 648 336 0 0 0 5 0 0 202 152 0 27 0 0 0 0 0 0 0 35 168 198 184 156 200 240 280 314 366 381 261 175 170 147 160 211 212 58 13 6 0 0 0 0 0 0
1883 1902 1958 2015 2037 2060 2054 2028 1968 1920 1916 1938 1965 2011 2048 2078 2052 2028 2016 2013 1984 1970 1953 1927 1864 1761 1626 1480 1400 1396 1410 1419 1390 1294 1167 927 804 843 878 739 540 538 538 45 0 246 286 272 67 0 46 0 0 0 0 0 0 0 23 207 207 131 139 163 206 272 327 406 454 336 239 226 207 268 248 237 17 1 8 0 0 0 0 0 3
2042 2058 2100 2116 2140 2157 2169 2175 2146 2110 2073 2041 2040 2048 2085 2131 2155 2133 2089 2081 2052 1998 1978 1908 1874 1766 1648 1577 1539 1520 1535 1544 1547 1456 1336 1220 1107 1000 916 844 734 690 665 592 270 302 365 448 334 47 0 0 0 0 0 97 0 0 160 220 232 186 118 162 236 277 346 377 379 353 293 292 285 319 313 276 95 0 0 0 0 0 0 0 0
2192 2231 2239 2244 2246 2253 2266 2279 2291 2282 2251 2222 2168 2136 2132 2153 2191 2203 2179 2148 2106 2082 2020 1948 1872 1786 1707 1653 1642 1647 1666 1690 1707 1649 1488 1400 1350 1257 1150 1036 953 890 820 640 594 572 665 778 605 214 34 212 180 112 33 66 10 37 91 230 266 210 238 334 452 512 521 443 413 405 397 352 316 305 324 325 283 0 0 0 0 0 0 0 0
2308 2362 2381 2386 2367 2369 2379 2394 2405 2403 2405 2378 2319 2268 2216 2195 2205 2232 2250 2221 2199 2158 2100 2036 1933 1855 1798 1753 1732 1740 1769 1800 1827 1802 1678 1524 1449 1384 1276 1193 1125 1068 971 1052 1049 992 952 830 639 318 300 616 502 338 214 286 308 185 245 337 379 301 305 394 509 585 613 577 479 424 409 348 284 274 323 375 304 0 54 0 0 0 0 0 0
2370 2450 2502 2497 2487 2495 2492 2498 2484 2505 2519 2494 2463 2408 2344 2285 2239 2241 2253 2277 2282 2242 2184 2130 2061 2006 1942 1910 1874 1857 1889 1895 1915 1896 1817 1708 1605 1517 1419 1334 1217 1365 1404 1350 1360 1419 1322 1034 700 494 536 840 811 730 644 538 653 622 441 458 424 340 364 457 543 573 578 502 411 358 334 302 308 338 354 354 268 181 19 0 0 0 0 0 0
2371 2502 2574 2585 2592 2595 2590 2589 2582 2594 2592 2594 2565 2517 2460 2399 2321 2266 2252 2269 2285 2293 2270 2222 2178 2140 2092 2066 2023 1981 1949 1961 1972 1973 1903 1832 1780 1732 1674 1606 1482 1497 1522 1523 1477 1475 1534 1335 1076 623 419 305 422 816 1104 856 640 758 720 510 458 496 550 554 574 537 381 287 283 337 308 343 371 383 384 350 277 118 0 0 0 0 0 0 0
2358 2487 2588 2652 2684 2685 2664 2660 2672 2674 2664 2653 2624 2585 2547 2490 2434 2349 2283 2249 2237 2254 2280 2252 2241 2218 2190 2166 2147 2141 2129 2066 2052 2021 1969 1922 1908 1874 1810 1770 1700 1698 1794 1842 1828 1844 1756 1642 1440 1230 618 674 829 468 624 904 856 647 701 798 699 694 703 715 625 303 252 332 392 495 537 414 402 439 382 283 260 254 0 0 0 0 0 0 0
2341 2448 2566 2675 2761 2771 2746 2744 2745 2743 2728 2700 2652 2630 2598 2580 2520 2436 2330 2244 2218 2226 2235 2246 2250 2257 2249 2235 2226 2216 2197 2176 2165 2108 2039 1995 1971 1953 1886 1990 2139 2198 2100 1981 1974 1939 1869 1716 1448 1159 888 514 608 573 532 645 919 1026 921 865 868 847 879 662 606 298 330 490 533 538 354 383 283 307 282 209 249 258 0 0 0 50 133 162 167
2264 2419 2534 2678 2786 2836 2838 2817 2802 2786 2761 2722 2691 2680 2659 2622 2579 2497 2399 2307 2255 2249 2248 2257 2270 2278 2293 2303 2308 2294 2284 2258 2250 2213 2165 2130 2117 2127 2400 2376 2391 2448 2305 2196 2162 2116 1967 1767 1427 1125 892 658 391 555 528 499 639 830 938 957 892 798 620 334 406 352 353 559 502 388 380 308 214 224 210 167 224 175 0 3 155 178 190 200 0
2140 2311 2472 2639 2796 2886 2905 2875 2860 2810 2759 2749 2744 2728 2700 2672 2623 2560 2483 2405 2320 2284 2292 2306 2336 2332 2336 2370 2376 2396 2381 2379 2373 2347 2306 2286 2264 2425 2664 2616 2621 2396 2482 2259 2213 2110 2010 1845 1458 1185 1088 888 464 402 590 341 534 604 664 667 625 632 570 356 267 346 425 454 308 205 173 194 226 305 210 55 0 0 142 58 165 54 0 0 0
2022 2182 2366 2559 2728 2870 2934 2920 2891 2827 2779 2791 2795 2775 2752 2737 2685 2620 2560 2502 2422 2370 2368 2386 2407 2429 2444 2472 2481 2510 2508 2523 2532 2514 2487 2450 2372 2612 2340 2152 2057 2146 2244 2182 2297 2145 2032 1792 1428 1192 1075 935 637 432 284 665 507 587 638 667 662 508 389 246 297 436 525 474 502 548 574 483 317 64 0 0 0 0 0 0 0 0 0 0 0
1961 2070 2229 2401 2602 2775 2908 2927 2901 2862 2844 2844 2833 2819 2806 2786 2754 2694 2659 2599 2550 2495 2442 2444 2488 2541 2576 2594 2627 2652 2681 2691 2692 2678 2638 2583 2528 2586 2306 2430 2360 2362 2373 2318 2331 2168 2006 1709 1368 1247 1094 917 615 398 300 268 455 538 576 487 466 398 263 212 262 354 565 385 258 365 445 301 41 0 0 0 0 0 0 0 0 0 0 0 0
1986 2049 2155 2296 2464 2632 2778 2878 2910 2914 2916 2915 2884 2863 2845 2841 2807 2768 2734 2684 2637 2580 2536 2547 2577 2620 2667 2701 2757 2792 2786 2800 2785 2778 2762 2718 2875 2568 2600 2663 2577 2380 2268 2176 2214 2119 2024 1640 1345 1311 1038 892 608 448 333 252 344 400 431 489 386 295 240 167 158 144 338 488 694 385 228 132 12 0 1 0 0 0 0 0 0 0 0 0 0
2143 2136 2162 2232 2347 2538 2737 2858 2912 2947 2959 2962 2946 2932 2899 2868 2866 2828 2805 2773 2731 2668 2646 2616 2635 2685 2741 2797 2863 2902 2895 2912 2906 2891 2898 3044 3264 3283 3200 2901 2695 2525 2253 2100 2160 2164 1890 1538 1388 1256 1067 767 572 470 319 115 186 202 32 74 182 223 85 108 128 138 363 501 458 312 210 94 0 0 0 0 0 1 0 0 0 0 0 0 0
2220 2197 2181 2210 2312 2522 2707 2841 2919 2963 2987 3010 3018 3008 2979 2950 2913 2895 2894 2869 2827 2781 2737 2721 2714 2759 2824 2895 2932 2965 2988 3045 3042 3038 3132 3450 3622 3526 3370 3209 3028 2594 2275 2221 2088 2005 1903 1520 1402 1216 983 570 398 109 0 0 6 0 0 0 103 212 113 256 410 399 432 454 375 235 0 0 0 0 0 0 0 0 0 0 0 0 0 0 0
2371 2320 2277 2260 2334 2509 2680 2832 2933 2982 3012 3040 3059 3078 3069 3030 2999 2991 2979 2958 2926 2914 2890 2851 2862 2871 2912 2990 3030 3095 3138 3168 3246 3318 3604 3773 3751 3591 3355 3204 3001 2652 2308 2146 1993 1870 1662 1382 1236 1101 758 383 2 0 0 0 0 0 0 31 104 201 313 478 553 524 412 383 259 133 0 0 0 0 0 0 0 0 0 0 0 0 0 0 0
2647 2596 2544 2493 2444 2422 2638 2807 2939 3023 3056 3084 3109 3126 3123 3086 3083 3065 3067 3046 3040 3025 3015 3014 3026 3036 3074 3120 3201 3288 3354 3441 3535 3744 3871 3804 3593 3322 3033 2815 2601 2276 2042 1927 1794 1672 1466 1242 1046 802 171 0 0 0 426 93 0 0 0 0 94 270 459 600 549 377 326 205 119 0 0 0 0 0 0 0 0 0 0 0 0 0 0 0 0
2839 2835 2786 2739 2658 2591 2576 2762 2913 3012 3080 3109 3132 3161 3157 3127 3123 3152 3137 3134 3136 3143 3140 3171 3193 3226 3261 3313 3402 3500 3605 3741 3917 3955 3831 3603 3344 3008 2612 2482 2230 2090 1904 1763 1603 1399 1298 1187 847 474 0 49 54 29 0 0 0 12 372 557 622 584 587 526 420 266 126 0 0 0 0 0 0 0 0 0 0 0 0 0 0 0 0 0 0
2805 2753 2741 2748 2697 2622 2596 2670 2837 2992 3106 3142 3172 3178 3189 3173 3186 3186 3212 3185 3206 3209 3240 3254 3307 3351 3397 3495 3564 3682 3864 3956 3936 3781 3556 3351 3170 2668 2384 2160 2010 1825 1647 1517 1386 1244 1039 753 408 63 174 330 321 213 0 54 666 786 708 532 414 469 344 222 126 0 0 0 0 0 0 0 0 0 0 0 0 0 0 0 0 0 0 0 0
3025 2922 2827 2729 2662 2611 2620 2629 2798 2967 3106 3174 3214 3205 3198 3186 3180 3211 3210 3236 3226 3243 3258 3338 3381 3430 3537 3651 3776 3894 3921 3885 3800 3637 3467 3265 2819 2300 1924 1778 1653 1508 1346 1279 1138 907 596 439 82 117 176 224 44 0 550 824 775 162 0 76 201 134 87 0 0 0 0 0 0 0 0 0 0 0 0 0 0 0 0 0 0 0 0 0 0
3369 3277 3210 3110 3026 2934 2884 2835 2901 3104 3220 3281 3290 3277 3268 3252 3228 3191 3171 3215 3203 3268 3325 3369 3426 3538 3713 3856 3918 3905 3897 3780 3741 3623 3272 2490 1908 1656 1522 1444 1341 1230 1128 944 747 610 485 346 300 0 0 0 475 760 771 743 640 370 266 162 65 0 0 0 0 0 0 0 0 0 0 0 0 0 0 0 0 0 0 0 0 0 0 0 0
3456 3423 3379 3362 3308 3239 3171 3121 3067 3258 3362 3412 3411 3402 3376 3363 3281 3185 3135 3203 3246 3324 3409 3441 3508 3674 3860 3922 3899 3861 3791 3704 3514 3263 2427 1638 1496 1343 1162 1048 999 971 913 784 586 422 302 0 101 114 518 669 716 657 564 526 504 514 331 97 0 0 0 0 0 0 0 0 0 0 0 0 0 0 0 0 0 0 0 0 0 0 0 0 0
3770 3580 3492 3445 3433 3384 3341 3296 3248 3397 3452 3506 3542 3546 3565 3489 3308 3158 3120 3133 3146 3301 3423 3535 3634 3798 3931 3981 3967 3859 3664 3436 3153 2344 1568 1340 1210 978 897 861 847 822 756 576 442 74 0 0 402 555 572 542 474 413 266 170 230 226 105 0 0 0 0 0 0 0 0 0 0 0 0 0 0 0 0 0 0 0 0 0 0 0 0 0 0
3636 3734 3720 3626 3567 3517 3476 3454 3420 3505 3533 3563 3564 3558 3537 3463 3288 3233 3133 3146 3256 3308 3332 3542 3784 3944 4014 4015 3879 3680 3336 2789 1980 1478 1237 825 748 835 858 826 779 677 502 140 0 0 0 9 216 0 72 183 290 221 187 138 26 0 0 0 0 0 0 0 0 0 0 0 0 0 0 0 0 0 0 0 0 0 0 0 1 1 0 0 0
3548 3616 3620 3686 3738 3648 3566 3526 3473 3521 3481 3470 3499 3546 3491 3452 3415 3234 3184 2865 2975 3006 3137 3580 3802 3992 3973 3673 3376 2931 2122 1702 1398 1069 550 526 642 666 631 585 452 150 0 0 0 0 0 0 0 0 0 0 60 166 148 0 0 0 0 0 0 0 0 0 0 0 0 0 0 0 0 0 0 3 2 0 0 0 1 2 1 1 0 0 0
3395 3382 3388 3594 3708 3803 3746 3644 3514 3457 3443 3407 3432 3466 3448 3371 3368 3329 3323 3105 3157 3289 3079 3020 3455 3482 3288 3053 2372 1586 1363 1096 619 339 323 354 362 167 0 163 0 0 0 0 0 0 0 0 0 0 0 0 122 129 0 0 0 0 0 0 0 0 0 0 0 0 0 0 0 6 9 11 10 2 2 0 0 1 1 0 0 0 0 0 0
2500 2707 2909 3072 3372 3549 3682 3632 3460 3420 3322 3350 3371 3381 3362 3290 3009 3088 3347 2898 2762 2561 2539 2030 1885 1912 1646 1454 1320 1075 628 0 371 413 411 371 338 382 416 395 0 0 0 0 0 0 0 0 0 0 0 64 106 20 0 0 0 0 0 0 0 0 0 0 0 0 1 8 12 17 6 1 0 0 0 1 2 1 1 1 0 0 0 0 0
1200 1614 1895 1992 2120 1943 2197 2725 2979 3150 3306 3272 3248 3311 3325 3032 2630 2740 2740 2416 2576 2320 936 949 984 978 844 638 512 0 275 415 400 393 403 449 513 549 474 274 0 0 0 0 0 0 0 0 0 9 93 60 36 4 0 0 0 0 0 0 0 0 0 0 0 0 0 0 1 0 0 0 0 0 0 2 2 1 0 0 0 0 0 0 0
727 809 805 900 922 1001 1020 750 1361 2055 2553 2607 2619 2477 2942 3087 2769 2562 2199 2140 1587 541 210 236 303 291 300 339 395 440 480 495 534 530 555 566 564 423 0 0 0 0 0 0 0 0 0 0 48 182 98 18 0 0 0 0 0 0 0 0 0 0 0 0 0 0 0 0 0 0 0 0 0 0 0 0 0 0 0 0 0 0 0 0 0
764 769 506 627 612 540 562 533 385 608 1144 1169 1201 1384 1378 1343 945 1136 640 418 220 42 0 230 288 334 436 526 569 583 606 608 268 441 473 281 64 0 0 0 0 0 0 0 0 99 101 96 209 105 28 0 0 0 0 0 0 0 0 0 0 0 0 0 0 0 0 0 0 0 0 0 0 0 0 0 0 0 0 0 0 0 0 0 0
1038 783 446 473 266 290 362 396 492 410 428 613 636 427 217 68 99 131 178 198 218 299 371 464 524 576 602 608 622 633 597 504 294 120 0 0 0 0 0 0 0 0 0 0 0 158 187 204 90 16 0 0 0 0 0 0 0 0 0 0 0 0 0 0 0 0 0 0 0 0 0 0 0 0 0 0 0 0 0 0 0 0 0 0 0
1012 925 947 763 364 610 720 719 764 548 523 608 385 359 305 263 203 185 218 249 363 448 492 556 577 598 610 600 620 565 477 364 240 231 0 0 0 0 0 0 0 0 0 0 11 108 85 32 0 0 0 0 0 0 0 0 0 0 0 0 0 0 0 0 0 0 0 0 0 0 0 0 0 0 0 0 0 0 0 0 0 0 0 0 0
1004 927 1039 1185 1210 808 818 762 1195 1151 792 414 345 324 322 296 268 240 285 399 483 503 516 555 543 529 526 525 523 458 310 287 173 0 0 0 0 0 0 0 0 0 0 0 14 20 0 0 0 0 0 0 0 0 0 0 0 0 0 0 0 0 0 0 0 0 0 0 0 0 0 0 0 0 0 0 0 0 0 0 0 0 0 0 0
930 921 959 1060 1106 1150 1163 1340 1286 1194 898 517 360 361 329 328 332 378 460 536 558 572 576 556 522 492 470 509 460 408 286 0 0 0 0 0 0 0 0 0 0 0 0 0 0 0 0 0 0 0 0 0 0 0 0 0 0 0 0 0 0 0 0 0 0 0 0 0 0 0 0 0 0 0 0 0 0 0 0 0 0 0 0 0 0
910 844 833 801 806 835 880 998 1075 1012 874 677 552 522 508 509 525 541 583 595 574 511 472 493 497 510 503 472 462 388 328 0 0 0 254 71 44 0 0 0 0 0 0 0 0 0 0 0 0 0 0 0 0 0 0 0 0 0 0 0 0 0 0 0 0 0 0 0 0 0 0 0 0 0 0 0 0 0 0 0 0 0 0 0 0
1049 976 860 815 791 797 829 904 969 1028 942 828 725 685 693 640 577 552 500 484 468 485 479 436 481 519 470 444 455 477 327 394 348 351 171 138 24 29 27 0 0 0 0 0 0 0 0 0 0 0 0 0 0 0 0 0 0 0 0 0 0 0 0 0 0 0 0 0 0 0 0 0 0 0 0 0 0 0 0 0 0 0 0 0 0
1118 1095 1088 998 893 822 808 822 838 875 972 1000 928 853 776 721 663 626 598 555 515 478 467 456 411 368 413 454 483 489 434 294 203 169 158 86 161 54 0 0 0 0 0 0 0 0 0 0 0 0 0 0 0 0 0 0 0 0 0 0 0 0 0 0 0 0 0 0 0 0 0 0 0 0 0 0 0 0 0 0 0 0 0 0 0
976 1146 1039 945 959 802 811 733 723 739 736 770 785 788 801 763 769 697 633 564 516 477 428 332 312 402 416 439 443 429 399 390 327 251 207 174 127 0 0 0 0 0 0 0 0 0 0 0 0 0 0 0 0 0 0 0 0 0 0 0 0 0 0 0 0 0 0 0 0 0 0 0 0 0 0 0 0 0 0 0 0 0 0 0 0
700 755 885 864 951 698 716 737 676 661 635 661 626 659 702 728 645 633 606 549 444 371 330 355 418 434 459 454 444 430 411 367 311 245 175 62 0 0 0 0 0 0 0 0 0 0 0 0 0 0 0 0 0 0 0 0 0 0 0 0 0 0 0 0 0 0 0 0 0 0 0 0 0 0 0 0 0 0 0 0 0 0 0 0 0
431 370 403 450 584 771 791 667 750 785 769 730 677 672 697 693 647 611 598 558 375 256 199 191 217 260 342 411 426 411 371 318 240 137 99 77 0 0 0 0 0 0 0 0 0 0 0 0 0 0 0 0 0 0 0 0 0 0 0 0 0 0 0 0 0 0 0 0 0 0 0 0 0 0 0 0 0 0 0 0 0 0 0 0 0
413 370 358 367 326 294 481 723 778 768 772 826 800 740 728 742 743 718 692 482 229 210 100 29 11 130 196 286 336 298 226 181 156 139 127 0 0 0 0 0 0 0 0 0 0 0 0 0 0 0 0 0 0 0 0 0 0 0 0 0 0 0 0 0 0 0 0 0 0 0 0 0 0 0 0 0 0 0 0 0 0 0 0 0 0
442 364 392 364 286 263 307 357 515 666 705 666 738 765 730 659 627 625 574 432 285 124 149 78 31 108 162 208 199 173 157 83 0 0 0 0 0 0 0 0 0 0 0 0 0 0 0 0 0 0 0 0 0 0 0 0 0 0 0 0 0 0 0 0 0 0 0 0 0 0 0 0 0 0 0 0 0 0 0 0 0 0 0 0 0
488 372 325 246 238 157 114 140 152 286 479 616 564 500 471 457 475 474 560 439 180 112 160 124 58 62 100 138 125 33 0 0 0 0 0 0 0 0 0 0 0 0 0 0 0 0 0 0 0 0 0 4 8 0 0 0 0 0 0 0 0 0 0 0 0 0 0 0 0 0 0 0 0 0 0 0 0 0 0 0 0 0 0 0 0
205 266 282 266 207 188 154 71 65 97 159 204 376 423 353 299 280 213 197 261 195 154 170 134 93 31 0 0 0 0 0 0 0 0 0 0 0 0 0 0 0 0 0 0 0 0 0 0 0 0 6 20 13 0 0 0 0 0 0 0 0 0 0 0 0 0 0 0 0 0 0 0 0 0 0 0 0 0 0 0 0 0 0 0 0
0 0 17 0 20 140 149 156 168 169 158 169 25 157 71 50 65 147 136 102 144 149 127 109 60 0 0 0 0 0 0 0 0 0 0 0 0 0 0 0 0 0 0 0 0 1 4 6 4 15 26 29 23 2 0 0 0 0 0 0 0 0 0 0 0 0 0 0 0 0 0 0 0 0 0 0 0 0 0 0 0 0 0 0 0
Wind_Speed
20 19 19 18 18 18 19 21 22 23 23 23 22 21 22 22 20 19 20 18 18 15 12 10 9 9 10 11 12 13 14 16 17 19 20 22 nan nan nan nan nan nan nan nan nan nan nan nan nan nan nan nan nan nan nan nan nan nan nan nan nan nan nan nan nan nan nan nan nan nan nan nan nan nan nan nan nan nan 21 nan nan nan nan nan nan
19 20 19 19 19 18 18 20 22 23 23 23 22 22 22 22 22 21 18 17 18 15 13 11 9 9 10 11 12 13 14 16 18 19 21 23 25 nan nan nan nan nan nan nan nan nan nan nan nan nan nan nan nan nan nan nan nan nan nan nan nan nan nan nan nan nan nan nan nan nan nan nan 22 nan nan nan nan nan nan nan nan nan nan nan nan
19 19 19 19 19 18 18 19 20 21 22 22 21 21 21 21 22 19 16 17 17 15 14 11 10 9 9 10 12 13 15 16 18 20 21 24 26 27 nan nan nan nan nan nan nan nan nan nan nan nan nan nan nan nan nan nan nan nan nan nan nan nan nan nan nan nan nan nan nan nan nan nan nan nan nan nan nan nan nan nan nan nan nan nan nan
18 19 19 18 19 19 18 18 19 19 19 19 19 19 20 20 19 17 16 18 17 16 15 12 10 9 9 11 12 13 15 17 18 19 22 24 26 28 29 nan nan nan nan nan nan nan nan nan nan nan nan nan nan nan nan nan nan nan nan nan nan nan nan nan nan nan nan nan 27 27 nan nan nan nan nan nan nan nan nan nan nan nan nan nan nan
19 19 19 20 20 19 19 18 18 17 16 16 16 18 18 18 18 17 18 17 17 18 16 12 10 10 10 11 12 13 15 18 19 20 21 23 26 28 29 31 nan nan nan nan nan nan 32 29 nan nan nan nan nan nan nan nan nan nan nan 34 34 34 35 nan 36 36 35 31 27 25 25 nan 24 24 26 nan nan nan nan nan nan nan nan nan nan
19 20 20 21 20 20 19 19 17 16 14 14 15 17 17 17 18 18 18 17 18 18 15 12 10 9 9 10 11 13 15 18 20 21 23 25 26 27 29 31 33 nan nan nan nan nan nan 31 29 nan nan nan nan nan nan nan nan nan nan 35 35 35 36 36 37 37 36 31 29 24 26 26 25 27 29 31 nan nan nan nan nan nan nan nan nan
20 20 21 21 21 21 20 18 17 15 13 13 16 17 16 16 17 17 18 18 18 17 14 11 11 11 10 9 10 12 15 17 20 22 23 25 27 28 29 31 33 34 35 nan nan 35 34 33 nan nan nan nan nan nan nan nan nan nan nan 36 36 35 35 36 38 38 37 32 28 28 27 28 31 29 32 34 nan nan nan nan nan nan nan nan nan
21 21 22 21 21 22 20 19 17 16 15 15 16 16 16 16 16 18 20 18 17 16 13 12 12 12 10 9 9 11 14 17 20 22 24 26 28 29 31 32 33 34 35 35 35 36 35 34 32 nan nan nan nan nan nan nan nan nan 36 36 36 36 35 36 38 39 37 34 30 28 31 30 33 33 35 36 nan nan nan nan nan nan nan nan nan
22 22 22 21 21 22 22 21 19 18 18 17 17 16 16 16 18 19 19 18 19 16 15 14 14 12 10 9 9 11 14 17 20 23 25 26 28 31 33 34 35 36 36 36 36 36 35 34 33 32 nan 34 36 36 nan nan nan nan nan 37 37 37 36 37 38 39 37 36 31 32 31 31 34 36 35 37 38 nan nan nan nan nan nan nan nan
24 24 22 21 21 22 23 23 22 22 21 18 17 17 17 18 19 19 18 19 19 18 17 15 12 11 11 10 10 12 14 16 20 28 30 29 30 31 33 34 36 38 39 40 40 38 37 34 33 36 38 39 39 38 38 39 39 38 37 38 37 38 38 38 39 39 39 37 34 33 33 32 34 38 38 38 40 nan nan nan nan nan nan nan nan
24 25 23 22 24 26 25 25 25 24 23 21 20 19 19 19 20 19 19 20 19 19 17 14 12 12 11 11 11 12 14 16 24 29 33 35 32 32 34 36 39 41 43 44 43 41 37 35 33 34 36 37 37 40 38 40 40 40 40 40 39 40 40 40 38 40 41 39 36 37 36 32 32 39 39 38 39 39 nan nan nan nan nan nan nan
24 25 24 25 27 28 27 27 27 26 26 24 23 21 21 21 21 21 21 21 20 20 17 14 13 13 12 12 12 13 14 19 27 31 34 35 35 33 34 36 38 42 44 45 43 39 36 35 33 33 33 35 36 36 38 40 40 40 39 38 39 41 42 42 41 41 41 39 36 35 37 36 35 40 40 42 39 39 nan nan nan nan nan nan nan
22 24 26 28 29 29 29 29 28 28 27 27 26 24 23 22 21 22 21 22 24 20 16 16 14 14 13 13 12 14 15 21 28 32 34 35 37 37 34 35 37 40 43 43 40 35 32 32 33 33 33 37 37 37 37 37 39 39 37 37 39 41 40 39 40 37 41 40 37 36 40 41 39 38 43 42 42 42 nan nan nan nan nan nan nan
20 21 25 28 29 29 30 31 30 30 30 29 29 27 24 21 21 23 26 27 23 19 18 15 15 15 14 14 14 15 16 22 29 33 35 36 37 38 34 35 37 39 40 39 36 34 34 35 35 34 34 36 36 38 38 37 35 34 34 36 38 39 40 40 39 41 45 42 40 36 38 41 37 37 38 40 41 42 nan nan nan nan 50 47 46
22 22 24 26 28 29 30 32 32 33 34 32 30 29 27 23 23 25 28 26 22 20 19 17 16 16 15 15 15 16 16 25 30 34 36 36 37 38 33 32 34 37 37 36 36 37 37 37 37 36 37 37 37 39 39 38 36 35 35 37 39 39 42 44 43 44 44 45 43 37 36 37 38 35 32 33 42 49 nan nan 51 52 51 51 nan
25 26 26 27 29 30 31 32 34 36 37 35 32 30 30 27 24 26 28 27 24 23 22 19 17 17 17 17 17 16 18 28 32 35 36 36 37 34 32 31 33 35 36 36 37 38 40 42 41 39 38 39 39 42 41 39 37 36 37 38 40 41 45 45 46 46 48 46 39 37 37 35 35 32 34 nan nan nan 55 nan 54 nan nan nan nan
29 30 30 29 30 31 32 33 35 38 38 37 34 32 32 29 25 27 28 27 26 24 21 21 21 20 19 19 18 18 19 28 34 36 36 36 34 32 33 33 34 36 37 38 39 41 44 46 45 43 41 40 41 43 42 42 38 37 38 39 40 42 45 46 48 50 48 39 31 32 35 33 32 nan nan nan nan nan nan nan nan nan nan nan nan
33 34 33 33 33 34 35 35 36 37 37 36 35 32 32 31 28 28 28 28 26 24 24 24 24 22 22 20 20 21 21 28 35 37 36 36 37 37 37 37 36 37 37 39 42 43 47 53 51 47 44 41 43 43 41 40 38 37 38 39 39 42 47 46 42 37 32 30 30 33 35 35 nan nan nan nan nan nan nan nan nan nan nan nan nan
37 37 35 35 35 36 37 38 37 35 33 33 34 33 32 32 31 29 27 28 27 28 28 27 26 26 23 22 23 24 24 30 36 38 36 36 38 38 37 38 38 39 41 41 42 45 47 51 55 51 44 40 42 41 42 41 38 38 40 41 41 45 49 48 43 37 33 32 38 42 42 43 nan nan nan nan nan nan nan nan nan nan nan nan nan
39 40 39 39 37 35 35 36 35 32 30 30 33 33 34 35 34 31 29 29 30 31 30 29 29 28 26 25 27 26 27 31 34 38 36 38 43 42 40 41 40 42 43 45 47 47 49 51 53 51 44 39 39 41 43 43 40 39 nan nan 42 47 nan 46 43 42 39 40 42 45 48 nan nan nan nan nan nan nan nan nan nan nan nan nan nan
43 44 45 45 41 34 32 34 33 30 29 30 33 36 37 36 35 33 31 31 32 32 32 32 32 31 30 29 29 30 30 34 35 38 38 41 45 46 41 42 42 43 45 47 48 49 51 52 49 42 37 36 39 41 nan nan nan nan nan nan 42 47 50 46 45 47 45 45 46 49 nan nan nan nan nan nan nan nan nan nan nan nan nan nan nan
47 47 48 46 42 38 35 35 33 31 31 34 36 35 36 37 37 36 36 34 32 33 35 37 36 36 36 34 33 34 35 38 38 38 40 44 48 47 43 41 43 45 48 49 49 49 51 50 42 35 35 38 nan nan nan nan nan nan nan nan 49 52 47 45 47 48 48 49 50 51 nan nan nan nan nan nan nan nan nan nan nan nan nan nan nan
52 52 51 48 47 44 39 37 38 36 34 34 35 35 38 39 39 40 39 37 35 35 38 41 42 42 41 39 37 38 38 39 44 43 43 47 48 47 46 44 46 47 49 50 49 48 47 43 37 35 38 nan nan nan 41 nan nan nan nan nan nan 48 47 47 47 47 48 47 48 nan nan nan nan nan nan nan nan nan nan nan nan nan nan nan nan
54 54 53 52 51 47 42 42 44 41 37 37 37 38 40 41 42 43 42 42 40 38 40 44 45 45 44 43 41 41 40 42 43 47 46 48 48 48 46 46 49 47 49 49 49 48 44 40 37 39 nan nan nan nan nan nan nan nan 46 48 49 47 46 47 46 46 45 nan nan nan nan nan nan nan nan nan nan nan nan nan nan nan nan nan nan
57 56 53 52 51 49 48 50 51 47 42 41 42 42 43 45 46 45 46 46 44 42 43 44 45 46 47 46 46 45 44 45 47 47 50 50 49 48 46 48 50 53 49 46 48 44 41 43 45 nan 45 43 42 40 nan nan 47 46 47 49 49 46 46 46 45 nan nan nan nan nan nan nan nan nan nan nan nan nan nan nan nan nan nan nan nan
60 59 57 55 54 56 57 56 55 53 49 47 46 48 47 47 48 51 52 51 48 47 48 48 47 48 50 50 50 49 48 49 50 51 50 49 48 49 49 50 52 52 49 47 49 46 45 46 nan 46 45 43 nan nan 38 39 47 49 nan nan 45 46 nan nan nan nan nan nan nan nan nan nan nan nan nan nan nan nan nan nan nan nan nan nan nan
56 56 55 55 56 60 63 64 64 62 60 56 55 55 54 50 49 53 56 57 52 51 53 51 50 51 53 54 54 53 51 51 52 53 53 51 50 51 51 51 57 55 48 46 46 41 41 42 41 nan nan nan 41 42 42 43 42 42 43 43 nan nan nan nan nan nan nan nan nan nan nan nan nan nan nan nan nan nan nan nan nan nan nan nan nan
51 50 50 53 56 58 60 65 67 68 68 67 66 65 61 57 54 52 54 57 57 57 56 54 52 53 56 58 58 56 55 53 53 55 54 53 53 54 52 54 55 50 46 45 43 41 43 nan 44 42 41 40 40 40 40 40 41 42 42 nan nan nan nan nan nan nan nan nan nan nan nan nan nan nan nan nan nan nan nan nan nan nan nan nan nan
53 52 52 54 56 57 59 61 63 65 68 70 71 70 66 61 59 56 56 57 61 62 59 57 55 56 60 62 61 58 57 53 52 53 54 56 58 57 55 56 54 48 46 50 45 nan nan nan 41 39 39 40 40 41 41 42 41 42 42 nan nan nan nan nan nan nan nan nan nan nan nan nan nan nan nan nan nan nan nan nan nan nan nan nan nan
56 56 57 58 58 60 62 64 66 67 68 70 73 74 74 74 71 72 73 71 62 61 65 63 61 63 66 64 61 59 56 54 59 63 63 61 61 62 62 61 55 49 49 51 nan nan nan nan 39 nan nan 38 39 40 41 42 nan nan nan nan nan nan nan nan nan nan nan nan nan nan nan nan nan nan nan nan nan nan nan nan nan nan nan nan nan
57 56 58 59 61 66 69 71 72 75 75 74 72 72 77 83 94 96 87 78 69 70 75 75 73 70 69 67 64 65 67 67 66 65 66 64 64 65 65 59 54 52 nan nan nan nan nan nan nan nan nan nan nan 38 39 nan nan nan nan nan nan nan nan nan nan nan nan nan nan nan nan nan nan nan nan nan nan nan nan nan nan nan nan nan nan
59 60 60 59 60 66 72 75 78 79 77 76 77 79 85 91 94 99 100 86 73 68 68 72 76 76 73 70 65 62 65 66 67 67 65 65 67 67 nan 53 nan nan nan nan nan nan nan nan nan nan nan nan 37 37 nan nan nan nan nan nan nan nan nan nan nan nan nan nan nan nan nan nan nan nan nan nan nan nan nan nan nan nan nan nan nan
62 61 58 58 60 62 69 80 85 84 82 78 77 80 86 88 87 86 97 97 82 74 73 74 74 75 73 69 67 63 60 nan 66 67 67 70 70 61 52 48 nan nan nan nan nan nan nan nan nan nan nan nan 36 nan nan nan nan nan nan nan nan nan nan nan nan nan nan nan nan nan nan nan nan nan nan nan nan nan nan nan nan nan nan nan nan
59 59 62 62 63 67 68 67 74 80 81 81 81 82 83 81 78 84 87 85 79 74 78 79 75 74 70 68 67 nan 67 67 66 67 71 73 64 52 46 42 nan nan nan nan nan nan nan nan nan nan nan nan nan nan nan nan nan nan nan nan nan nan nan nan nan nan nan nan nan nan nan nan nan nan nan nan nan nan nan nan nan nan nan nan nan
52 56 61 61 64 66 63 55 54 61 68 73 79 82 84 82 78 75 72 74 72 68 65 73 76 73 66 63 65 69 68 66 65 69 74 69 57 49 nan nan nan nan nan nan nan nan nan nan nan 36 nan nan nan nan nan nan nan nan nan nan nan nan nan nan nan nan nan nan nan nan nan nan nan nan nan nan nan nan nan nan nan nan nan nan nan
52 53 53 54 55 56 52 38 32 31 42 53 59 64 68 70 65 57 56 65 69 nan nan 70 68 69 72 69 67 68 67 66 69 73 68 60 nan nan nan nan nan nan nan nan nan nan 36 nan 37 36 nan nan nan nan nan nan nan nan nan nan nan nan nan nan nan nan nan nan nan nan nan nan nan nan nan nan nan nan nan nan nan nan nan nan nan
47 46 43 41 39 38 38 33 29 31 43 53 54 52 51 nan nan 45 51 57 63 66 64 60 62 66 67 64 67 68 68 70 71 66 nan nan nan nan nan nan nan nan nan nan nan 37 37 36 nan nan nan nan nan nan nan nan nan nan nan nan nan nan nan nan nan nan nan nan nan nan nan nan nan nan nan nan nan nan nan nan nan nan nan nan nan
40 39 37 37 33 26 24 24 26 37 46 50 47 46 50 50 48 49 51 53 51 49 50 54 58 60 61 59 60 61 68 71 68 56 nan nan nan nan nan nan nan nan nan nan nan 37 nan nan nan nan nan nan nan nan nan nan nan nan nan nan nan nan nan nan nan nan nan nan nan nan nan nan nan nan nan nan nan nan nan nan nan nan nan nan nan
35 39 39 35 30 27 21 18 15 19 25 28 30 35 38 41 47 50 47 40 37 38 43 49 53 53 54 56 62 66 69 58 49 nan nan nan nan nan nan nan nan nan nan nan nan nan nan nan nan nan nan nan nan nan nan nan nan nan nan nan nan nan nan nan nan nan nan nan nan nan nan nan nan nan nan nan nan nan nan nan nan nan nan nan nan
31 30 30 31 29 28 27 27 23 20 18 19 22 25 25 27 31 33 29 28 30 32 37 44 47 50 53 59 63 60 55 nan nan nan nan nan nan nan nan nan nan nan nan nan nan nan nan nan nan nan nan nan nan nan nan nan nan nan nan nan nan nan nan nan nan nan nan nan nan nan nan nan nan nan nan nan nan nan nan nan nan nan nan nan nan
26 26 26 26 27 26 26 26 23 21 20 20 21 21 21 21 22 23 25 28 29 31 37 43 47 50 53 56 53 48 46 nan nan nan 40 nan nan nan nan nan nan nan nan nan nan nan nan nan nan nan nan nan nan nan nan nan nan nan nan nan nan nan nan nan nan nan nan nan nan nan nan nan nan nan nan nan nan nan nan nan nan nan nan nan nan
27 25 23 22 23 24 22 20 20 19 18 18 19 19 20 22 23 25 28 31 32 35 40 46 48 51 53 52 45 40 40 43 43 43 41 39 nan nan nan nan nan nan nan nan nan nan nan nan nan nan nan nan nan nan nan nan nan nan nan nan nan nan nan nan nan nan nan nan nan nan nan nan nan nan nan nan nan nan nan nan nan nan nan nan nan
25 25 22 21 22 21 20 19 19 20 20 20 20 21 23 25 26 29 32 34 37 39 43 46 48 49 49 45 40 38 42 42 41 41 39 nan 34 nan nan nan nan nan nan nan nan nan nan nan nan nan nan nan nan nan nan nan nan nan nan nan nan nan nan nan nan nan nan nan nan nan nan nan nan nan nan nan nan nan nan nan nan nan nan nan nan
25 23 22 21 21 23 23 24 24 24 24 25 26 26 27 28 29 32 35 39 42 44 47 48 49 46 45 42 40 41 43 42 40 38 36 34 33 nan nan nan nan nan nan nan nan nan nan nan nan nan nan nan nan nan nan nan nan nan nan nan nan nan nan nan nan nan nan nan nan nan nan nan nan nan nan nan nan nan nan nan nan nan nan nan nan
26 24 23 23 23 23 25 25 24 25 27 29 30 31 32 33 34 35 38 41 43 44 45 45 44 44 44 42 40 41 41 39 36 33 31 nan nan nan nan nan nan nan nan nan nan nan nan nan nan nan nan nan nan nan nan nan nan nan nan nan nan nan nan nan nan nan nan nan nan nan nan nan nan nan nan nan nan nan nan nan nan nan nan nan nan
28 27 27 27 29 29 28 27 28 29 30 32 33 33 35 37 39 40 39 39 40 43 43 43 44 45 44 41 38 36 34 31 29 28 nan nan nan nan nan nan nan nan nan nan nan nan nan nan nan nan nan nan nan nan nan nan nan nan nan nan nan nan nan nan nan nan nan nan nan nan nan nan nan nan nan nan nan nan nan nan nan nan nan nan nan
37 36 35 34 33 32 31 31 33 35 38 38 37 36 37 36 35 33 32 34 34 35 nan nan nan 37 34 31 28 27 26 26 26 28 30 nan nan nan nan nan nan nan nan nan nan nan nan nan nan nan nan nan nan nan nan nan nan nan nan nan nan nan nan nan nan nan nan nan nan nan nan nan nan nan nan nan nan nan nan nan nan nan nan nan nan
40 40 39 37 36 35 34 34 36 37 34 34 34 34 32 31 30 28 29 28 24 24 26 nan nan 25 24 24 25 26 27 nan nan nan nan nan nan nan nan nan nan nan nan nan nan nan nan nan nan nan nan nan nan nan nan nan nan nan nan nan nan nan nan nan nan nan nan nan nan nan nan nan nan nan nan nan nan nan nan nan nan nan nan nan nan
39 39 37 35 34 34 33 33 33 31 29 28 29 28 28 27 27 28 28 26 23 23 27 28 nan nan nan 26 28 nan nan nan nan nan nan nan nan nan nan nan nan nan nan nan nan nan nan nan nan nan nan nan nan nan nan nan nan nan nan nan nan nan nan nan nan nan nan nan nan nan nan nan nan nan nan nan nan nan nan nan nan nan nan nan nan
37 37 36 34 33 32 31 nan nan nan 27 26 26 28 29 27 26 25 27 26 28 29 30 31 nan nan nan nan nan nan nan nan nan nan nan nan nan nan nan nan nan nan nan nan nan nan nan nan nan nan nan nan nan nan nan nan nan nan nan nan nan nan nan nan nan nan nan nan nan nan nan nan nan nan nan nan nan nan nan nan nan nan nan nan nan
nan nan nan nan nan 31 30 30 30 31 31 31 nan 31 nan nan nan 29 30 28 30 31 33 33 nan nan nan nan nan nan nan nan nan nan nan nan nan nan nan nan nan nan nan nan nan nan nan nan nan nan nan nan nan nan nan nan nan nan nan nan nan nan nan nan nan nan nan nan nan nan nan nan nan nan nan nan nan nan nan nan nan nan nan nan nan
Wind_Direction
325 323 314 312 303 298 290 281 279 274 276 279 280 280 279 280 280 277 272 279 281 285 283 286 297 310 318 325 327 326 330 334 331 333 337 342 nan nan nan nan nan nan nan nan nan nan nan nan nan nan nan nan nan nan nan nan nan nan nan nan nan nan nan nan nan nan nan nan nan nan nan nan nan nan nan nan nan nan 287 nan nan nan nan nan nan
328 322 316 314 316 308 297 286 281 277 280 280 282 280 279 279 277 272 275 277 278 281 280 276 285 303 316 326 325 326 329 332 331 333 337 341 344 nan nan nan nan nan nan nan nan nan nan nan nan nan nan nan nan nan nan nan nan nan nan nan nan nan nan nan nan nan nan nan nan nan nan nan 308 nan nan nan nan nan nan nan nan nan nan nan nan
321 317 320 320 322 311 301 294 288 287 286 283 285 284 280 277 273 274 271 267 270 272 271 275 285 299 314 318 321 327 330 329 330 333 337 340 344 344 nan nan nan nan nan nan nan nan nan nan nan nan nan nan nan nan nan nan nan nan nan nan nan nan nan nan nan nan nan nan nan nan nan nan nan nan nan nan nan nan nan nan nan nan nan nan nan
315 320 322 323 319 313 312 305 302 299 297 289 291 287 280 275 272 270 265 262 268 263 263 272 281 297 312 313 320 329 327 326 328 332 337 339 342 347 348 nan nan nan nan nan nan nan nan nan nan nan nan nan nan nan nan nan nan nan nan nan nan nan nan nan nan nan nan nan 316 315 nan nan nan nan nan nan nan nan nan nan nan nan nan nan nan
313 319 322 324 320 320 318 312 314 315 309 292 292 286 281 276 268 267 262 262 260 255 256 264 277 291 302 311 321 328 326 323 326 331 334 337 342 346 349 352 nan nan nan nan nan nan 347 346 nan nan nan nan nan nan nan nan nan nan nan 328 328 328 324 nan 325 322 321 322 317 313 309 nan 308 303 302 nan nan nan nan nan nan nan nan nan nan
313 316 320 324 325 325 319 317 324 324 312 297 291 286 282 277 271 263 260 258 252 250 257 262 270 283 290 303 316 321 318 320 327 333 336 337 340 344 348 352 354 nan nan nan nan nan nan 346 337 nan nan nan nan nan nan nan nan nan nan 326 326 323 323 322 320 321 321 320 315 310 307 312 306 304 303 304 nan nan nan nan nan nan nan nan nan
307 312 317 325 324 326 322 320 315 311 303 292 279 278 282 280 273 264 256 249 247 249 255 263 262 268 281 294 310 314 315 318 324 332 336 338 342 346 348 350 351 351 350 nan nan 348 348 345 nan nan nan nan nan nan nan nan nan nan nan 327 325 323 322 320 319 319 320 317 312 313 314 312 310 309 302 303 nan nan nan nan nan nan nan nan nan
302 308 311 318 326 328 324 314 305 301 291 284 281 281 280 275 268 256 248 247 247 253 259 261 256 259 275 291 299 301 311 317 325 331 335 339 343 347 348 348 350 349 348 347 346 347 348 347 344 nan nan nan nan nan nan nan nan nan 328 326 325 324 323 319 317 318 318 317 315 313 311 310 303 305 302 300 nan nan nan nan nan nan nan nan nan
297 301 305 318 326 322 313 306 301 295 291 286 287 286 282 272 261 252 248 246 245 252 254 255 258 266 274 284 292 300 311 319 323 329 334 340 344 347 347 347 347 347 346 345 344 344 344 345 344 342 nan 339 339 336 nan nan nan nan nan 328 327 324 323 319 319 318 317 315 312 305 304 307 308 307 307 306 307 nan nan nan nan nan nan nan nan
290 295 307 320 317 307 306 307 306 302 296 292 288 284 277 268 260 256 253 250 249 251 252 255 263 274 278 280 287 299 311 313 329 340 339 340 344 345 344 345 344 343 342 340 339 339 341 341 341 344 343 345 344 344 343 341 340 336 332 329 328 324 321 320 319 318 315 313 312 308 307 311 310 310 310 308 305 nan nan nan nan nan nan nan nan
285 292 307 311 304 300 301 305 305 308 306 295 283 280 279 270 262 259 255 253 255 255 254 260 268 268 274 280 294 304 310 316 335 336 340 344 343 344 345 345 342 340 337 335 334 335 334 337 338 342 342 342 342 347 344 344 345 345 340 335 329 324 320 320 320 315 314 313 311 307 308 308 307 306 307 304 302 304 nan nan nan nan nan nan nan
291 294 301 296 295 299 301 302 303 307 304 302 295 285 276 271 266 262 260 261 259 256 257 264 266 264 263 278 296 307 314 327 332 334 336 343 346 346 344 343 340 337 335 333 329 327 330 332 336 335 336 338 336 337 341 345 346 346 344 339 332 327 324 319 317 313 312 312 309 311 306 305 300 299 300 298 301 302 nan nan nan nan nan nan nan
297 292 290 291 296 298 297 298 301 302 303 300 292 286 283 278 274 269 270 266 258 257 260 262 262 263 271 287 302 309 314 326 330 331 334 342 350 349 342 341 337 335 335 337 336 332 329 330 332 332 332 339 336 333 334 338 345 348 344 337 327 323 323 324 314 310 309 308 312 310 307 302 299 299 300 301 299 302 nan nan nan nan nan nan nan
298 290 285 288 293 294 295 297 299 301 297 290 287 290 294 294 285 273 265 262 261 259 260 266 262 267 278 290 299 303 315 320 328 329 334 342 349 348 342 338 337 335 337 341 344 340 333 331 331 331 329 331 331 331 331 334 334 333 330 322 317 318 321 316 321 318 311 313 309 303 292 291 295 297 296 296 301 305 nan nan nan nan 302 303 299
298 291 287 287 287 288 293 296 299 297 293 289 288 295 301 300 291 276 269 270 268 262 261 262 261 269 280 287 291 301 310 318 324 328 333 342 350 345 339 334 333 333 334 339 342 340 335 332 330 329 328 329 328 328 328 330 329 328 324 319 314 314 308 310 312 310 305 297 300 307 305 299 293 288 289 299 309 309 nan nan 303 301 300 297 nan
291 286 286 287 289 291 292 294 294 291 291 291 293 300 302 302 298 284 274 268 261 254 252 256 263 271 278 285 291 301 305 315 323 326 333 342 348 333 331 328 327 329 332 334 336 335 332 329 329 328 326 327 328 332 329 325 325 326 323 315 312 310 310 315 311 300 301 305 307 298 296 299 294 293 297 nan nan nan 304 nan 300 nan nan nan nan
280 281 284 287 288 287 287 290 289 289 290 293 298 301 301 300 296 285 280 274 267 263 262 264 264 271 279 284 295 301 300 310 320 323 330 343 334 324 316 316 327 330 329 328 330 331 329 329 329 327 325 322 324 327 329 323 321 322 319 314 312 309 306 306 309 309 309 308 305 307 308 298 289 nan nan nan nan nan nan nan nan nan nan nan nan
282 284 286 287 287 285 285 285 285 285 287 294 298 297 295 291 293 288 287 280 271 265 262 260 263 268 276 286 294 296 297 302 316 319 330 338 330 317 314 320 324 322 325 325 326 329 330 333 329 324 321 319 321 325 326 321 318 318 317 314 312 305 304 307 309 310 305 302 307 306 301 295 nan nan nan nan nan nan nan nan nan nan nan nan nan
281 284 288 289 288 286 284 282 280 280 284 289 289 290 290 291 286 281 281 277 269 260 258 260 262 265 273 283 293 296 293 296 313 318 329 333 323 314 314 317 321 322 322 323 325 327 325 326 328 323 318 317 321 323 323 320 319 317 315 311 307 301 308 312 315 311 303 296 289 286 284 285 nan nan nan nan nan nan nan nan nan nan nan nan nan
282 281 278 277 277 278 277 277 276 275 278 280 281 283 278 277 279 280 278 274 266 259 258 259 263 265 270 277 279 288 292 291 306 317 324 326 322 314 313 316 321 322 323 324 323 321 320 318 320 322 321 319 318 320 320 321 318 312 nan nan 308 309 nan 312 308 309 308 301 294 287 287 nan nan nan nan nan nan nan nan nan nan nan nan nan nan
278 276 275 277 278 279 273 271 273 270 267 266 268 270 271 274 277 277 276 271 265 259 260 261 262 263 267 272 275 283 288 291 299 313 318 321 317 313 312 317 319 318 320 319 317 317 316 315 312 316 320 318 316 316 nan nan nan nan nan nan 315 308 309 307 310 312 305 299 293 290 nan nan nan nan nan nan nan nan nan nan nan nan nan nan nan
273 273 273 276 279 278 274 269 268 264 261 258 259 263 267 270 272 274 272 270 267 262 259 260 260 261 263 267 272 279 284 293 291 306 312 311 312 317 311 314 315 315 314 314 314 315 316 315 314 312 315 313 nan nan nan nan nan nan nan nan 305 306 308 306 305 303 302 300 299 299 nan nan nan nan nan nan nan nan nan nan nan nan nan nan nan
266 267 269 271 273 276 273 270 264 258 257 260 261 261 263 265 264 266 269 269 267 262 260 259 259 261 263 265 268 274 279 284 293 295 304 308 312 316 315 311 314 311 311 313 315 316 313 313 312 313 313 nan nan nan 311 nan nan nan nan nan nan 309 306 304 305 304 302 301 302 nan nan nan nan nan nan nan nan nan nan nan nan nan nan nan nan
271 273 275 275 275 274 272 272 271 264 258 257 260 260 260 262 262 261 263 265 263 259 256 260 262 264 267 267 268 271 276 279 287 295 298 305 306 311 310 307 309 308 307 311 313 311 309 311 309 308 nan nan nan nan nan nan nan nan 310 313 310 309 306 307 305 306 304 nan nan nan nan nan nan nan nan nan nan nan nan nan nan nan nan nan nan
277 279 280 279 280 282 282 281 282 278 267 261 261 261 262 264 264 261 260 260 260 259 257 260 264 265 266 269 270 270 272 275 277 284 292 297 303 306 305 304 308 304 304 307 309 309 307 306 304 nan 300 303 306 310 nan nan 305 310 312 310 311 308 309 309 309 nan nan nan nan nan nan nan nan nan nan nan nan nan nan nan nan nan nan nan nan
275 278 278 278 280 282 282 282 283 281 274 266 263 262 262 262 263 261 258 256 255 256 257 258 260 264 266 266 268 269 270 272 275 278 282 288 294 302 300 298 301 302 301 304 307 305 304 303 nan 297 298 302 nan nan 307 307 307 308 nan nan 309 310 nan nan nan nan nan nan nan nan nan nan nan nan nan nan nan nan nan nan nan nan nan nan nan
276 276 277 277 276 276 278 278 278 278 276 270 265 261 258 257 260 263 262 259 255 253 254 257 259 262 265 266 266 267 269 271 274 276 279 284 287 288 289 291 294 293 296 300 298 296 295 295 297 nan nan nan 307 307 305 304 304 306 309 311 nan nan nan nan nan nan nan nan nan nan nan nan nan nan nan nan nan nan nan nan nan nan nan nan nan
278 279 281 278 275 275 275 278 277 274 275 274 271 266 260 257 257 262 266 266 262 256 253 254 258 261 262 263 264 264 267 269 273 278 281 283 285 288 290 293 296 297 298 299 298 297 296 nan 294 297 301 302 303 302 303 306 308 309 310 nan nan nan nan nan nan nan nan nan nan nan nan nan nan nan nan nan nan nan nan nan nan nan nan nan nan
261 265 270 275 276 276 276 276 276 275 274 272 270 272 272 266 260 256 256 258 262 259 253 251 253 256 259 261 263 264 265 269 273 276 283 287 289 290 292 294 295 296 301 301 295 nan nan nan 295 300 305 306 305 305 306 308 310 312 313 nan nan nan nan nan nan nan nan nan nan nan nan nan nan nan nan nan nan nan nan nan nan nan nan nan nan
261 262 262 264 267 270 271 272 271 270 270 269 268 261 256 256 256 255 250 243 244 252 255 250 249 250 252 255 260 266 267 268 273 278 281 286 289 292 293 294 296 296 302 304 nan nan nan nan 302 nan nan 305 305 307 311 313 nan nan nan nan nan nan nan nan nan nan nan nan nan nan nan nan nan nan nan nan nan nan nan nan nan nan nan nan nan
258 257 263 268 273 273 273 272 271 271 271 271 270 268 261 253 247 245 250 257 255 246 244 248 251 252 254 252 247 255 264 267 274 277 280 284 287 288 291 295 296 298 nan nan nan nan nan nan nan nan nan nan nan 311 312 nan nan nan nan nan nan nan nan nan nan nan nan nan nan nan nan nan nan nan nan nan nan nan nan nan nan nan nan nan nan
266 268 267 265 269 274 275 274 273 271 269 267 267 265 260 258 251 244 240 246 251 250 246 247 249 252 255 257 256 250 257 265 272 276 279 280 281 283 nan 295 nan nan nan nan nan nan nan nan nan nan nan nan 308 310 nan nan nan nan nan nan nan nan nan nan nan nan nan nan nan nan nan nan nan nan nan nan nan nan nan nan nan nan nan nan nan
270 268 264 267 268 267 272 275 272 268 265 261 258 260 262 263 264 258 243 236 239 241 238 240 246 252 254 257 263 267 266 nan 272 275 278 278 279 283 291 297 nan nan nan nan nan nan nan nan nan nan nan nan 309 nan nan nan nan nan nan nan nan nan nan nan nan nan nan nan nan nan nan nan nan nan nan nan nan nan nan nan nan nan nan nan nan
272 271 270 269 265 264 267 268 262 256 256 255 250 251 256 259 264 264 255 242 234 232 233 235 242 249 252 257 261 nan 267 268 271 274 275 277 280 285 288 290 nan nan nan nan nan nan nan nan nan nan nan nan nan nan nan nan nan nan nan nan nan nan nan nan nan nan nan nan nan nan nan nan nan nan nan nan nan nan nan nan nan nan nan nan nan
276 277 278 277 274 274 276 271 250 240 245 246 246 248 252 254 258 259 249 238 234 236 237 236 236 241 247 251 259 264 265 267 271 272 273 276 281 286 nan nan nan nan nan nan nan nan nan nan nan 298 nan nan nan nan nan nan nan nan nan nan nan nan nan nan nan nan nan nan nan nan nan nan nan nan nan nan nan nan nan nan nan nan nan nan nan
280 280 281 280 279 279 277 268 254 252 259 256 251 252 254 253 252 247 231 218 222 nan nan 235 240 240 242 245 254 260 264 267 270 271 274 279 nan nan nan nan nan nan nan nan nan nan 295 nan 294 297 nan nan nan nan nan nan nan nan nan nan nan nan nan nan nan nan nan nan nan nan nan nan nan nan nan nan nan nan nan nan nan nan nan nan nan
284 285 287 285 283 280 274 262 244 229 238 247 249 247 242 nan nan 221 210 209 218 224 235 242 243 241 242 246 250 252 256 263 266 271 nan nan nan nan nan nan nan nan nan nan nan 291 290 291 nan nan nan nan nan nan nan nan nan nan nan nan nan nan nan nan nan nan nan nan nan nan nan nan nan nan nan nan nan nan nan nan nan nan nan nan nan
283 284 288 292 290 276 264 252 232 221 225 238 239 228 220 215 210 206 205 208 217 231 242 244 244 247 251 251 252 254 257 258 260 260 nan nan nan nan nan nan nan nan nan nan nan 289 nan nan nan nan nan nan nan nan nan nan nan nan nan nan nan nan nan nan nan nan nan nan nan nan nan nan nan nan nan nan nan nan nan nan nan nan nan nan nan
284 284 284 287 283 276 266 264 253 229 222 219 212 207 203 197 193 196 202 212 227 240 244 244 246 249 253 254 256 258 261 262 269 nan nan nan nan nan nan nan nan nan nan nan nan nan nan nan nan nan nan nan nan nan nan nan nan nan nan nan nan nan nan nan nan nan nan nan nan nan nan nan nan nan nan nan nan nan nan nan nan nan nan nan nan
287 283 274 268 267 268 268 265 262 254 242 231 219 211 204 195 194 202 220 243 255 251 245 245 247 249 251 254 260 263 267 nan nan nan nan nan nan nan nan nan nan nan nan nan nan nan nan nan nan nan nan nan nan nan nan nan nan nan nan nan nan nan nan nan nan nan nan nan nan nan nan nan nan nan nan nan nan nan nan nan nan nan nan nan nan
280 280 274 266 265 264 264 263 261 258 250 246 240 235 233 232 233 240 255 265 261 251 247 249 250 253 259 264 272 276 276 nan nan nan 289 nan nan nan nan nan nan nan nan nan nan nan nan nan nan nan nan nan nan nan nan nan nan nan nan nan nan nan nan nan nan nan nan nan nan nan nan nan nan nan nan nan nan nan nan nan nan nan nan nan nan
274 272 271 268 268 268 268 270 271 271 269 269 269 268 269 271 271 271 271 270 266 260 256 255 258 262 265 269 273 265 265 270 278 284 284 282 nan nan nan nan nan nan nan nan nan nan nan nan nan nan nan nan nan nan nan nan nan nan nan nan nan nan nan nan nan nan nan nan nan nan nan nan nan nan nan nan nan nan nan nan nan nan nan nan nan
269 269 268 268 269 272 277 279 281 281 280 276 272 271 271 270 270 267 266 266 266 265 265 264 265 266 268 271 271 268 273 277 280 282 280 nan 271 nan nan nan nan nan nan nan nan nan nan nan nan nan nan nan nan nan nan nan nan nan nan nan nan nan nan nan nan nan nan nan nan nan nan nan nan nan nan nan nan nan nan nan nan nan nan nan nan
259 258 263 266 270 270 269 277 284 286 283 282 279 273 270 267 266 267 268 268 268 268 267 267 267 269 269 272 271 273 276 277 277 275 272 269 267 nan nan nan nan nan nan nan nan nan nan nan nan nan nan nan nan nan nan nan nan nan nan nan nan nan nan nan nan nan nan nan nan nan nan nan nan nan nan nan nan nan nan nan nan nan nan nan nan
268 269 271 270 266 264 263 265 268 273 279 280 278 277 275 275 273 271 271 272 272 272 272 271 271 270 271 274 275 275 275 272 268 265 263 nan nan nan nan nan nan nan nan nan nan nan nan nan nan nan nan nan nan nan nan nan nan nan nan nan nan nan nan nan nan nan nan nan nan nan nan nan nan nan nan nan nan nan nan nan nan nan nan nan nan
268 270 271 270 269 264 260 259 260 264 269 273 276 276 274 272 273 275 277 277 277 277 274 271 268 270 272 273 271 269 266 260 257 256 nan nan nan nan nan nan nan nan nan nan nan nan nan nan nan nan nan nan nan nan nan nan nan nan nan nan nan nan nan nan nan nan nan nan nan nan nan nan nan nan nan nan nan nan nan nan nan nan nan nan nan
266 270 274 275 273 270 267 266 267 267 270 273 273 271 272 271 271 269 270 275 276 275 nan nan nan 270 270 270 265 257 249 248 254 261 266 nan nan nan nan nan nan nan nan nan nan nan nan nan nan nan nan nan nan nan nan nan nan nan nan nan nan nan nan nan nan nan nan nan nan nan nan nan nan nan nan nan nan nan nan nan nan nan nan nan nan
269 273 277 277 271 264 260 261 263 265 267 270 273 272 270 267 266 267 263 257 258 263 263 nan nan 266 260 252 247 245 245 nan nan nan nan nan nan nan nan nan nan nan nan nan nan nan nan nan nan nan nan nan nan nan nan nan nan nan nan nan nan nan nan nan nan nan nan nan nan nan nan nan nan nan nan nan nan nan nan nan nan nan nan nan nan
269 270 270 266 264 264 264 261 259 262 268 267 261 261 262 263 267 268 262 258 250 249 256 258 nan nan nan 251 249 nan nan nan nan nan nan nan nan nan nan nan nan nan nan nan nan nan nan nan nan nan nan nan nan nan nan nan nan nan nan nan nan nan nan nan nan nan nan nan nan nan nan nan nan nan nan nan nan nan nan nan nan nan nan nan nan
264 265 264 262 258 253 253 nan nan nan 253 256 262 262 261 266 262 256 253 245 243 246 249 251 nan nan nan nan nan nan nan nan nan nan nan nan nan nan nan nan nan nan nan nan nan nan nan nan nan nan nan nan nan nan nan nan nan nan nan nan nan nan nan nan nan nan nan nan nan nan nan nan nan nan nan nan nan nan nan nan nan nan nan nan nan
nan nan nan nan nan 257 256 257 260 260 258 255 nan 253 nan nan nan 242 240 243 244 246 252 258 nan nan nan nan nan nan nan nan nan nan nan nan nan nan nan nan nan nan nan nan nan nan nan nan nan nan nan nan nan nan nan nan nan nan nan nan nan nan nan nan nan nan nan nan nan nan nan nan nan nan nan nan nan nan nan nan nan nan nan nan nan